Stations météo

réclame
Mon MeteoGroup
Tiree, Grande-Bretagne (3100): Température de l'air & dewpoint: 12.02.2019 16:00:00 - 18.02.2019 16:00:00 (GMT)Tiree, Grande-Bretagne (3100): Température de l'air -20cm & Température de l'air -100cm: 12.02.2019 16:00:00 - 18.02.2019 16:00:00 (GMT)Tiree, Grande-Bretagne (3100): Vitesse du vent & gusts: 12.02.2019 16:00:00 - 18.02.2019 16:00:00 (GMT)Tiree, Grande-Bretagne (3100): Direction du vent: 12.02.2019 16:00:00 - 18.02.2019 16:00:00 (GMT)Tiree, Grande-Bretagne (3100): reduced air pressure: 12.02.2019 16:00:00 - 18.02.2019 16:00:00 (GMT)Tiree, Grande-Bretagne (3100): visibility: 12.02.2019 16:00:00 - 18.02.2019 16:00:00 (GMT)Tiree, Grande-Bretagne (3100): Ensoleillement: 12.02.2019 16:00:00 - 18.02.2019 16:00:00 (GMT)Tiree, Grande-Bretagne (3100): Quantités de précipitations: 12.02.2019 16:00:00 - 18.02.2019 16:00:00 (GMT)
Date & Time tt [°C] td [°C] tt -20cm [°C] tt -100cm [°C] ff [km/h] ff [knt] fx [km/h] fx [knt] dd ppp [hPa] vv [km] sd [min] rr [mm]
18.02.2019 16:00:00 8,3 5,8 - - 26 14 - - W 1000,3 10 30 0,0
18.02.2019 15:00:00 8,4 5,3 - - 31 17 - - W 999,5 10 42 0,0
18.02.2019 14:00:00 9,3 7,1 - - 29 16 - - W 998,6 10 42 0,8
18.02.2019 13:00:00 9,6 7,2 - - 29 16 - - WSW 997,9 10 36 0,2
18.02.2019 12:00:00 8,0 6,5 - - 31 17 50 27 WSW 997,4 13 0 0,4
18.02.2019 11:00:00 8,2 6,1 - - 34 18 50 27 SW 996,8 10 0 0,4
18.02.2019 10:00:00 8,1 6,4 - - 41 22 68 37 SW 996,3 11 0 1,6
18.02.2019 09:00:00 6,3 4,8 7,2 7,4 41 22 76 41 WSW 996,1 3,2 0 4,4
18.02.2019 08:00:00 7,7 6,0 - - 50 27 70 38 S 995,7 7 0 0,6
18.02.2019 07:00:00 7,9 5,3 - - 52 28 74 40 S 995,4 9 0 0,0
18.02.2019 06:00:00 7,8 4,9 - - 50 27 74 40 S 995,5 8 0 0,0
18.02.2019 05:00:00 7,5 4,6 - - 48 26 72 39 SSW 995,6 6 0 0,0
18.02.2019 04:00:00 7,7 4,3 - - 48 26 68 37 SSW 996,0 9 0 0,0
18.02.2019 03:00:00 8,0 4,4 - - 50 27 68 37 SSW 996,0 9 0 0,0
18.02.2019 02:00:00 7,9 5,3 - - 39 21 63 34 SSW 996,3 10 0 0,0
18.02.2019 01:00:00 8,2 5,6 - - 41 22 74 40 SSW 996,1 10 0 0,0
18.02.2019 00:00:00 8,5 4,9 - - 50 27 72 39 S 995,6 17 - 0,0
17.02.2019 23:00:00 8,9 5,4 - - 54 29 74 40 S 995,7 14 0 0,0
17.02.2019 22:00:00 8,6 5,9 - - 44 24 67 36 S 995,6 11 0 0,0
17.02.2019 21:00:00 8,6 5,8 - - 48 26 63 34 S 996,1 10 0 0,0
17.02.2019 20:00:00 9,2 5,5 - - 44 24 59 32 S 996,6 11 0 0,0
17.02.2019 19:00:00 9,1 5,5 - - 42 23 57 31 SSE 996,8 11 0 0,0
17.02.2019 18:00:00 8,8 5,8 - - 37 20 59 32 S 997,1 10 0 0,0
17.02.2019 17:00:00 9,0 5,5 - - 46 25 61 33 S 997,2 12 12 0,0
17.02.2019 16:00:00 9,0 5,5 - - 42 23 55 30 S 997,5 13 48 0,0
17.02.2019 15:00:00 9,3 5,5 - - 42 23 59 32 S 997,9 10 60 0,0
17.02.2019 14:00:00 9,3 5,9 - - 39 21 57 31 S 997,8 17 60 0,0
17.02.2019 13:00:00 8,7 6,3 - - 41 22 55 30 S 997,5 19 12 0,4
17.02.2019 12:00:00 6,6 5,4 - - 39 21 68 37 SW 997,8 8 0 -
17.02.2019 11:00:00 9,2 8,2 - - 44 24 57 31 S 996,5 9 0 -
17.02.2019 10:00:00 9,1 8,0 - - 39 21 54 29 SSE 996,7 8 0 0,2
17.02.2019 09:00:00 9,4 8,0 7,2 7,4 39 21 55 30 S 997,1 7 0 0,0
17.02.2019 08:00:00 9,6 7,8 - - 35 19 59 32 SSE 997,2 7 0 0,0
17.02.2019 07:00:00 9,8 7,6 - - 44 24 67 36 SSE 997,3 7 0 0,0
17.02.2019 06:00:00 9,9 7,8 - - 48 26 65 35 SSE 997,6 7 0 0,0
17.02.2019 05:00:00 9,4 8,1 - - 48 26 61 33 SSE 998,4 6 0 0,0
17.02.2019 04:00:00 9,3 8,4 - - 46 25 61 33 SSE 999,4 4,6 0 0,0
17.02.2019 03:00:00 9,4 8,3 - - 48 26 61 33 SSE 1000,5 5 0 0,0
17.02.2019 02:00:00 9,5 8,5 - - 44 24 61 33 SSE 1001,1 7 0 0,2
17.02.2019 01:00:00 9,4 8,5 - - 46 25 63 34 SSE 1001,6 5 0 0,0
17.02.2019 00:00:00 9,2 8,0 - - 44 24 61 33 SSE 1002,3 8 - 0,2
16.02.2019 23:00:00 8,9 7,8 - - 46 25 57 31 SSE 1003,3 7 0 0,6
16.02.2019 22:00:00 8,8 7,5 - - 42 23 57 31 SSE 1004,1 7 0 0,4
16.02.2019 21:00:00 8,8 7,4 - - 44 24 59 32 SSE 1004,9 6 0 0,4
16.02.2019 20:00:00 8,8 7,3 - - 42 23 59 32 SSE 1005,6 6 0 0,4
16.02.2019 19:00:00 8,9 7,1 - - 42 23 55 30 SSE 1006,1 8 0 0,0
16.02.2019 18:00:00 8,9 6,8 - - 44 24 57 31 SSE 1006,2 10 0 0,0
16.02.2019 17:00:00 8,9 6,6 - - 41 22 54 29 SSE 1007,1 11 0 0,0
16.02.2019 16:00:00 8,6 6,4 - - 41 22 55 30 SSE 1007,8 13 0 0,2
16.02.2019 15:00:00 8,6 6,1 - - 41 22 54 29 SSE 1008,4 13 0 0,0
16.02.2019 14:00:00 8,7 6,5 - - 37 20 50 27 SSE 1009,2 11 0 0,0
16.02.2019 13:00:00 8,7 6,5 - - 35 19 48 26 SSE 1009,8 12 6 0,0
16.02.2019 12:00:00 9,1 7,2 - - 34 18 46 25 S 1010,5 17 42 0,0
16.02.2019 11:00:00 9,3 7,2 - - 31 17 - - S 1010,5 14 60 0,0
16.02.2019 10:00:00 8,8 7,0 - - 35 19 46 25 SSW 1010,2 10 24 0,0
16.02.2019 09:00:00 8,7 7,6 7,0 7,2 26 14 46 25 SSW 1009,5 9 0 0,0
16.02.2019 08:00:00 8,5 7,4 - - 29 16 - - SSW 1008,6 11 0 0,0
16.02.2019 07:00:00 8,9 8,2 - - 29 16 48 26 SSW 1007,8 7 0 0,0
16.02.2019 06:00:00 9,0 8,5 - - 31 17 50 27 SSW 1007,8 7 0 0,4
16.02.2019 05:00:00 9,0 8,5 - - 31 17 48 26 SSW 1007,7 1,9 0 0,0
16.02.2019 04:00:00 9,0 8,4 - - 29 16 - - S 1007,6 10 0 0,0
16.02.2019 03:00:00 9,0 8,4 - - 28 15 - - S 1007,8 13 0 0,2
16.02.2019 02:00:00 8,8 8,2 - - 28 15 - - S 1008,4 2,6 0 0,4
16.02.2019 01:00:00 9,3 8,0 - - 28 15 - - SSW 1008,3 5 0 0,2
16.02.2019 00:00:00 9,4 8,4 - - 22 12 61 33 SSW 1007,9 4,8 - 0,2
15.02.2019 23:00:00 9,5 8,7 - - 21 11 48 26 SSW 1007,8 10 0 1,4
15.02.2019 22:00:00 9,7 8,9 - - 18 10 54 29 SW 1007,6 7 0 0,2
15.02.2019 21:00:00 9,1 8,6 - - 41 22 55 30 S 1007,1 4,7 0 3,6
15.02.2019 20:00:00 8,9 8,2 - - 41 22 52 28 SSE 1007,3 2,7 0 0,6
15.02.2019 19:00:00 8,9 8,1 - - 41 22 50 27 SSE 1008,5 6 0 1,0
15.02.2019 18:00:00 8,9 7,9 - - 37 20 50 27 SSE 1009,2 4,9 0 1,2
15.02.2019 17:00:00 8,8 7,8 - - 39 21 52 28 SSE 1009,9 5 0 1,2
15.02.2019 16:00:00 9,0 7,4 - - 41 22 55 30 SSE 1010,4 9 0 0,0
15.02.2019 15:00:00 9,6 7,0 - - 42 23 61 33 S 1011,1 9 0 0,0
15.02.2019 14:00:00 9,5 6,7 - - 48 26 63 34 S 1011,7 9 0 0,0
15.02.2019 13:00:00 9,3 6,4 - - 48 26 65 35 S 1012,1 9 0 0,0
15.02.2019 12:00:00 9,3 6,2 - - 50 27 63 34 S 1012,8 10 0 0,0
15.02.2019 11:00:00 8,7 5,7 - - 46 25 65 35 S 1013,4 9 0 0,0
15.02.2019 10:00:00 8,1 6,0 - - 52 28 70 38 SSE 1014,0 7 36 0,0
15.02.2019 09:00:00 8,0 5,8 6,9 7,2 52 28 70 38 SSE 1014,1 8 18 0,0
15.02.2019 08:00:00 7,9 5,4 - - 46 25 63 34 SSE 1014,0 9 0 0,0
15.02.2019 07:00:00 7,8 5,6 - - 50 27 65 35 SSE 1014,7 8 0 0,0
15.02.2019 06:00:00 7,9 5,1 - - 39 21 55 30 SSE 1015,6 9 0 0,0
15.02.2019 05:00:00 7,8 5,2 - - 44 24 59 32 SSE 1015,8 9 0 0,0
15.02.2019 04:00:00 7,8 5,6 - - 42 23 65 35 SSE 1016,5 9 0 0,0
15.02.2019 03:00:00 7,8 6,0 - - 52 28 67 36 SSE 1017,2 8 0 0,0
15.02.2019 02:00:00 7,8 6,3 - - 46 25 61 33 SSE 1018,4 7 0 0,0
15.02.2019 01:00:00 8,1 6,4 - - 46 25 63 34 SSE 1018,9 8 0 0,0
15.02.2019 00:00:00 8,1 6,5 - - 42 23 57 31 SSE 1019,3 8 - 0,0
14.02.2019 23:00:00 8,0 6,5 - - 46 25 63 34 SSE 1019,8 6 0 0,0
14.02.2019 22:00:00 8,2 6,4 - - 52 28 68 37 SSE 1019,5 8 0 0,0
14.02.2019 21:00:00 8,2 6,4 - - 54 29 70 38 SSE 1019,4 8 0 0,0
14.02.2019 20:00:00 8,4 6,5 - - 48 26 65 35 SSE 1019,9 8 0 0,0
14.02.2019 19:00:00 8,5 6,6 - - 46 25 63 34 SSE 1019,9 8 0 0,0
14.02.2019 18:00:00 8,6 6,8 - - 46 25 59 32 SE 1019,8 8 0 0,0
14.02.2019 17:00:00 8,8 7,0 - - 39 21 50 27 SE 1020,0 9 0 0,0
14.02.2019 16:00:00 9,1 7,0 - - 37 20 50 27 SSE 1020,6 9 12 0,0
14.02.2019 15:00:00 9,3 7,2 - - 37 20 46 25 SSE 1021,1 8 60 0,0
14.02.2019 14:00:00 9,4 7,3 - - 37 20 54 29 SSE 1021,3 9 54 0,0
14.02.2019 13:00:00 9,3 7,3 - - 37 20 57 31 S 1021,7 8 30 0,0
14.02.2019 12:00:00 9,4 7,6 - - 41 22 54 29 S 1021,9 9 0 0,0
14.02.2019 11:00:00 9,2 7,6 - - 42 23 54 29 S 1021,7 8 0 0,0
14.02.2019 10:00:00 9,1 7,7 - - 41 22 54 29 S 1021,3 8 0 0,0
14.02.2019 09:00:00 9,0 7,7 6,7 7,2 37 20 52 28 S 1021,4 9 0 0,0
14.02.2019 08:00:00 9,1 7,8 - - 35 19 46 25 S 1021,1 8 0 0,0
14.02.2019 07:00:00 9,2 7,8 - - 34 18 46 25 S 1020,4 9 0 0,0
14.02.2019 06:00:00 9,4 7,8 - - 35 19 46 25 S 1020,2 9 0 0,0
14.02.2019 05:00:00 9,4 7,8 - - 35 19 50 27 S 1019,8 9 0 0,0
14.02.2019 04:00:00 9,2 7,8 - - 37 20 48 26 S 1019,2 9 0 0,0
14.02.2019 03:00:00 9,1 7,7 - - 35 19 52 28 S 1019,3 8 0 0,0
14.02.2019 02:00:00 9,6 7,7 - - 39 21 52 28 S 1019,4 9 0 0,0
14.02.2019 01:00:00 9,8 7,7 - - 39 21 52 28 S 1018,9 9 0 0,0
14.02.2019 00:00:00 9,6 7,6 - - 41 22 55 30 S 1017,9 9 - 0,0
13.02.2019 23:00:00 9,6 7,5 - - 39 21 52 28 S 1017,8 9 0 0,0
13.02.2019 22:00:00 9,1 7,6 - - 35 19 50 27 S 1017,4 7 0 0,0
13.02.2019 21:00:00 9,1 7,5 - - 37 20 57 31 S 1017,6 7 0 0,0
13.02.2019 20:00:00 9,6 7,5 - - 41 22 59 32 S 1016,9 9 0 0,0
13.02.2019 19:00:00 9,9 7,4 - - 48 26 61 33 S 1016,5 9 0 0,0
13.02.2019 18:00:00 10,0 7,6 - - 44 24 55 30 S 1016,3 10 0 0,0
13.02.2019 17:00:00 9,8 7,6 - - 42 23 57 31 S 1015,8 8 0 0,0
13.02.2019 16:00:00 9,8 7,7 - - 41 22 57 31 S 1016,3 9 6 0,0
13.02.2019 15:00:00 10,0 8,0 - - 41 22 61 33 S 1016,9 10 30 0,0
13.02.2019 14:00:00 10,0 7,9 - - 46 25 61 33 S 1016,9 10 24 0,0
13.02.2019 13:00:00 9,6 7,8 - - 44 24 63 34 S 1017,2 8 0 0,0
13.02.2019 12:00:00 9,6 7,9 - - 46 25 67 36 S 1017,4 9 0 0,0
13.02.2019 11:00:00 9,4 8,0 - - 46 25 61 33 S 1017,5 9 0 0,0
13.02.2019 10:00:00 9,3 7,9 - - 44 24 57 31 S 1017,3 8 0 0,0
13.02.2019 09:00:00 9,3 7,9 6,2 7,0 42 23 57 31 S 1017,5 9 0 0,0
13.02.2019 08:00:00 9,1 7,9 - - 42 23 54 29 S 1017,3 9 0 0,0
13.02.2019 07:00:00 8,9 8,0 - - 41 22 52 28 S 1017,2 9 0 0,0
13.02.2019 06:00:00 9,1 8,2 - - 41 22 52 28 S 1017,5 9 0 0,2
13.02.2019 05:00:00 9,4 8,5 - - 39 21 54 29 S 1017,9 10 0 0,0
13.02.2019 04:00:00 9,3 8,7 - - 37 20 48 26 S 1018,2 9 0 0,0
13.02.2019 03:00:00 9,1 8,7 - - 34 18 - - S 1018,7 7 0 0,4
13.02.2019 02:00:00 8,9 8,4 - - 35 19 52 28 S 1019,4 4,4 0 0,6
13.02.2019 01:00:00 9,2 8,3 - - 39 21 50 27 S 1020,0 7 0 0,0
13.02.2019 00:00:00 8,4 7,8 - - 24 13 - - SSE 1020,9 6 - 0,0
12.02.2019 23:00:00 7,9 7,4 - - 15 8 - - S 1022,0 4,2 0 0,0
12.02.2019 22:00:00 7,8 7,0 - - 16 9 - - S 1022,2 3,8 0 0,0
12.02.2019 21:00:00 8,6 7,8 - - 21 11 - - S 1022,9 4,8 0 0,0
12.02.2019 20:00:00 8,7 7,9 - - 24 13 - - SSW 1023,2 4,4 0 0,0
12.02.2019 19:00:00 8,9 7,8 - - 22 12 - - SSW 1023,1 6 0 0,0
12.02.2019 18:00:00 8,7 7,6 - - 22 12 - - SSW 1022,3 5 0 0,0
12.02.2019 17:00:00 9,6 7,8 - - 28 15 52 28 SW 1021,2 6 6 0,0
12.02.2019 16:00:00 10,4 8,7 - - 35 19 55 30 SW 1020,3 6 60 0,0

tt = Température de l'air
td = dewpoint
tt -20cm = Température de l'air -20cm
tt -100cm = Température de l'air -100cm
ff = Vitesse du vent
fx = gusts
dd = Direction du vent
ppp = reduced air pressure
vv = visibility
sd = Ensoleillement
rr = Quantités de précipitations

stations d'obs. à proximité